TimeCDT,TemperatureF,Dew PointF,Humidity,Sea Level PressureIn,VisibilityMPH,Wind Direction,Wind SpeedMPH,Gust SpeedMPH,PrecipitationIn,Events,Conditions,WindDirDegrees,DateUTC
12:53 AM,69.1,66.0,90,29.84,10.0,WSW,4.6,-,N/A,,Clear,240,2012-09-06 05:53:00
1:53 AM,70.0,66.0,87,29.85,10.0,SW,5.8,-,N/A,,Overcast,230,2012-09-06 06:53:00
2:53 AM,69.1,66.0,90,29.85,10.0,SW,4.6,-,N/A,,Clear,220,2012-09-06 07:53:00
3:53 AM,66.0,64.0,93,29.86,8.0,WSW,3.5,-,N/A,,Clear,250,2012-09-06 08:53:00
4:53 AM,66.9,64.9,93,29.87,9.0,West,4.6,-,N/A,,Clear,260,2012-09-06 09:53:00
5:53 AM,66.0,64.9,96,29.88,7.0,SW,3.5,-,N/A,,Clear,220,2012-09-06 10:53:00
6:53 AM,66.0,64.9,96,29.91,4.0,West,3.5,-,N/A,,Clear,270,2012-09-06 11:53:00
7:53 AM,71.1,66.9,87,29.92,8.0,WNW,4.6,-,N/A,,Clear,290,2012-09-06 12:53:00
8:53 AM,77.0,66.0,69,29.91,10.0,Variable,5.8,-,N/A,,Clear,0,2012-09-06 13:53:00
9:53 AM,80.1,64.0,58,29.92,10.0,NNW,6.9,-,N/A,,Clear,330,2012-09-06 14:53:00
10:53 AM,82.0,61.0,49,29.93,10.0,NW,6.9,-,N/A,,Clear,320,2012-09-06 15:53:00
11:53 AM,82.0,60.1,47,29.93,10.0,NNW,5.8,-,N/A,,Clear,330,2012-09-06 16:53:00
12:53 PM,82.0,59.0,45,29.93,10.0,NW,5.8,-,N/A,,Clear,320,2012-09-06 17:53:00
1:53 PM,82.9,59.0,44,29.92,10.0,North,6.9,-,N/A,,Clear,350,2012-09-06 18:53:00
2:53 PM,82.9,60.1,46,29.91,10.0,Variable,5.8,-,N/A,,Clear,0,2012-09-06 19:53:00
3:53 PM,82.9,60.1,46,29.90,10.0,NNE,5.8,-,N/A,,Clear,20,2012-09-06 20:53:00
4:53 PM,82.0,59.0,45,29.89,10.0,NE,4.6,-,N/A,,Clear,40,2012-09-06 21:53:00
5:53 PM,79.0,60.1,52,29.89,10.0,North,4.6,-,N/A,,Clear,10,2012-09-06 22:53:00
6:53 PM,75.0,60.1,60,29.91,10.0,Calm,Calm,-,N/A,,Clear,0,2012-09-06 23:53:00
7:53 PM,66.9,61.0,81,29.93,10.0,NE,3.5,-,N/A,,Clear,50,2012-09-07 00:53:00
8:53 PM,66.0,60.1,81,29.92,10.0,ENE,3.5,-,N/A,,Clear,60,2012-09-07 01:53:00
9:53 PM,64.0,59.0,84,29.92,10.0,NE,3.5,-,N/A,,Clear,40,2012-09-07 02:53:00
10:53 PM,62.1,59.0,90,29.91,10.0,NE,3.5,-,N/A,,Clear,40,2012-09-07 03:53:00
11:53 PM,62.1,57.9,86,29.92,10.0,Calm,Calm,-,N/A,,Clear,0,2012-09-07 04:53:00